{"data":{"norad_id":54083,"epoch":"2026-05-24T22:26:58.669728Z","epoch_age_seconds":80290,"freshness":"FRESH","line1":"1 54083U 22136AJ  26144.93540127 -.00000172  00000+0  72767-5 0  9996","line2":"2 54083  53.2113 351.9060 0002022  86.0484 274.0739 15.08834156198491","mean_motion":15.08834156,"eccentricity":0.0002022,"inclination_deg":53.2113,"raan_deg":351.906,"arg_perigee_deg":86.0484,"mean_anomaly_deg":274.0739,"bstar":7.2767e-6,"rev_number":19849,"period_min":95.437924325462,"perigee_km":538.36245276532,"apogee_km":541.16005081834,"semimajor_km":6917.8982517918,"source":"CELESTRAK","updated_at":"2026-05-25T13:38:17.653599Z"}}